MDT,Max TemperatureF,Mean TemperatureF,Min TemperatureF,Max Dew PointF,MeanDew PointF,Min DewpointF,Max Humidity, Mean Humidity, Min Humidity, Max Sea Level PressureIn, Mean Sea Level PressureIn, Min Sea Level PressureIn, Max VisibilityMiles, Mean VisibilityMiles, Min VisibilityMiles, Max Wind SpeedMPH, Mean Wind SpeedMPH, Max Gust SpeedMPH,PrecipitationIn, CloudCover, Events, WindDirDegrees
2011-9-1,71,56,40,41,35,27,86,54,22,29.99,29.92,29.86,10,10,9,20,5,25,T,2,,35
2011-9-2,69,53,37,39,35,30,85,56,26,30.38,29.98,29.86,10,10,2,28,7,37,T,2,Rain,25
2011-9-3,71,52,33,36,29,16,89,52,14,30.39,30.00,29.90,10,10,10,20,6,28,0.00,1,,310
2011-9-4,67,48,29,35,24,3,85,47,8,30.14,30.06,29.98,10,10,10,20,6,30,0.00,1,,9
2011-9-5,68,50,31,33,26,17,92,53,14,30.11,30.02,29.93,10,10,10,20,6,29,0.00,2,,36
2011-9-6,55,49,42,45,40,25,100,71,42,30.49,30.18,29.91,10,9,2,15,5,21,0.12,7,Rain,67
2011-9-7,57,49,40,45,42,38,100,76,51,30.63,30.40,30.09,10,7,0,16,4,21,0.76,8,Fog-Rain,214
2011-9-8,56,46,35,41,39,34,100,74,47,30.62,30.39,30.09,10,10,3,18,4,26,0.13,7,Rain,206
2011-9-9,58,44,30,38,33,27,100,65,30,30.51,30.25,30.02,10,8,0,18,4,25,T,2,Fog-Rain,189
2011-9-10,57,44,30,37,32,25,92,61,30,30.17,30.11,30.05,10,10,10,25,5,35,T,1,,171
2011-9-11,61,46,30,37,32,30,100,66,32,30.22,30.13,30.07,10,10,10,16,6,23,T,3,Rain,10
2011-9-12,59,47,35,38,34,31,85,66,47,30.51,30.16,30.09,10,9,4,20,6,25,T,3,,29
2011-9-13,57,45,33,37,33,30,92,65,38,30.17,30.11,30.03,10,10,8,15,5,25,T,4,Rain,51
2011-9-14,54,42,29,41,36,28,100,75,50,30.32,30.14,29.94,10,7,1,21,6,29,0.30,5,Rain,210
2011-9-15,51,42,32,39,37,32,100,78,56,30.30,30.09,29.87,10,7,0,25,4,32,0.05,7,Fog-Rain,282
2011-9-16,53,41,29,37,33,29,100,75,50,30.28,29.99,29.89,10,10,8,20,5,25,T,5,Rain,19
2011-9-17,51,42,33,39,34,31,96,71,46,30.34,30.01,29.85,10,9,2,26,6,33,0.06,6,Rain,13
2011-9-18,55,45,34,48,31,27,89,62,35,30.20,30.13,30.02,10,10,10,23,7,36,0.00,3,,341
2011-9-19,60,45,30,33,29,26,92,61,30,30.21,30.11,30.01,10,10,10,20,6,28,0.00,1,,1
2011-9-20,59,46,32,34,28,22,75,51,26,30.38,30.02,29.90,10,10,10,25,9,33,T,2,Rain,8
2011-9-21,58,43,28,31,26,20,92,58,24,30.14,30.03,29.96,10,10,9,26,8,37,T,3,,358
2011-9-22,61,43,25,28,21,12,92,54,15,30.22,30.17,30.12,10,10,10,17,6,22,0.00,0,,43
2011-9-23,66,48,29,27,24,20,75,47,19,30.28,30.17,30.08,10,10,10,16,5,23,0.00,0,,40
2011-9-24,68,51,34,31,26,22,75,47,19,30.13,30.00,29.89,10,10,10,16,6,24,0.00,1,,47
2011-9-25,67,48,29,30,27,25,75,49,22,29.99,29.88,29.79,10,10,10,18,5,26,T,3,,50
2011-9-26,65,47,29,27,22,19,72,46,19,30.04,29.94,29.82,10,10,10,17,6,22,0.00,3,,59
2011-9-27,65,48,31,27,23,20,69,44,18,30.12,30.06,29.99,10,10,10,18,6,24,0.00,1,,32
2011-9-28,66,48,30,28,24,19,70,43,16,30.14,30.07,30.00,10,10,10,20,7,29,0.00,0,,39
2011-9-29,65,48,30,34,27,24,75,49,23,30.51,30.17,30.05,10,10,2,22,7,29,0.00,3,,182
2011-9-30,63,46,28,32,28,24,92,59,25,30.23,30.14,30.04,10,10,10,20,7,26,T,2,,56